Regional Weather Roundup
Issued by NWS

Home | Current Version | Previous Version | Text Only | Print | Product List | Glossary On
Versions: 1 2 3 4 5 6 7 8 9 10 11 12 13 14 15 16 17 18 19 20 21 22 23 24 25 26 27 28 29 30 31 32 33 34 35 36 37 38 39 40 41 42 43 44 45 46 47 48 49 50
000
ASUS42 KFFC 240510
RWRGA
WEATHER ROUNDUP FOR GEORGIA
NATIONAL WEATHER SERVICE PEACHTREE CITY GA
1200 AM EST TUE JAN 24 2017

NOTE: "FAIR" INDICATES FEW OR NO CLOUDS BELOW 12,000 FEET WITH NO
SIGNIFICANT WEATHER AND/OR OBSTRUCTIONS TO VISIBILITY.

* = USE WITH CAUTION. THE STATIONS MARKED WITH AN ASTERISK MAY NOT
REPORT WEATHER SUCH AS PRECIPITATION, FOG, OR THUNDER AND ARE NOT
QUALITY CONTROLLED BY NWS.

THE REMARK "TC" DENOTES TEMPERATURE READING IN DEGREES CELSIUS.

GAZ001>058-240600-
NORTH GEORGIA

CITY           SKY/WX    TMP DP  RH WIND       PRES   REMARKS
ATLANTA        MOCLDY    50  43  77 NW17      29.72R
ATHENS         CLEAR     49  42  77 W12G20    29.64R
CHAMBLEE       CLOUDY    48  40  73 NW7       29.72R
PEACHTREE CITY MOCLDY    50  44  80 NW10      29.74S
ROME           CLOUDY    50  41  71 NW8       29.77R
WEST ATLANTA   CLOUDY    50  41  71 NW10      29.73R
GAINESVILLE    CLEAR     46  41  82 W14       29.67R
CARTERSVILLE   CLOUDY    49  42  77 VRB3      29.76S


CITY           SKY/WX    TMP DP  RH WIND       PRES   REMARKS
DALTON*        CLOUDY    46  41  81 N10       29.77S
MARIETTA       CLOUDY    48  41  76 NW16G24   29.72R
CANTON*        CLOUDY    46  37  71 NW18G30   29.72R
$$

GAZ059>098-102>109-240600-
CENTRAL GEORGIA

CITY           SKY/WX    TMP DP  RH WIND       PRES   REMARKS
AUGUSTA-BUSH   NOT AVBL
AUGUSTA-DANIEL CLEAR     54  42  64 W12G18    29.59R
COLUMBUS       CLEAR     53  44  71 NW9       29.75R
MACON          CLEAR     53  44  71 NW14G22   29.71R
ROBINS AFB     CLEAR     53  46  76 NW14      29.71R


CITY           SKY/WX    TMP DP  RH WIND       PRES   REMARKS
LAGRANGE*      CLEAR     53  48  84 NW9       29.76S
SYLVANIA*      PTCLDY   N/A N/A N/A NW15G21   29.61R
MILLEDGEVILLE* CLEAR     52  45  76 W7        29.68S
$$

GAZ099>101-110>166-240600-
SOUTH GEORGIA

CITY           SKY/WX    TMP DP  RH WIND       PRES   REMARKS
SAVANNAH       CLEAR     56  45  66 W14       29.60R
VALDOSTA       CLEAR     57  48  72 VRB6      29.74R
ALMA           CLEAR     57  47  69 NW13G21   29.68R
ST SIMONS      CLEAR     56  48  74 W9G20     29.63R
FT STEWART     CLEAR     56  45  67 W12       29.61R
ALBANY         CLEAR     57  48  72 W12       29.78R
HUNTER AFB     CLEAR     55  50  83 W14       29.57R
MOODY AFB      CLEAR     58  47  69 W10G18    29.72R
BRUNSWICK      CLEAR     55  50  82 W8        29.64S


CITY           SKY/WX    TMP DP  RH WIND       PRES   REMARKS
BAINBRIDGE*    CLEAR     55  46  71 W9        29.79S
MOULTRIE*      CLEAR     57  48  72 W7        29.77R
VIDALIA*       PTCLDY    55  48  76 NW15G23   29.65R
WAYCROSS*      CLEAR     59  52  76 NW13      29.69R
DOUGLAS*       CLEAR     55  45  67 W7        29.72R
$$



USA.gov is the U.S. government's official web portal to all federal, state and local government web resources and services.